Current weather by "City, St" or "zip code"  
 

Current Conditions: Big Spring, Big Spring McMahon-Wrinkle Airport, TX

Mostly Cloudy


94.0 F

Last Updated on Jul 3 2022, 1:55 pm CDT
Humidity: 27%
Wind Speed: SE 18.4 G 21.9 mph
Barometer 30.03 in
Dewpoint: 55.2 F
Visibility: 10.00 mi
Precip: --
Heat Index: 92 F
Wind Chill: NA
Current conditions at:

Big Spring, Big Spring McMahon-Wrinkle Airport, TX (KBPG)

Lat: 32.2 Lon: 101.51667

Local Radar Image active severe weather and emergency alerts image image weather storm and storm spotter reports image weather observation monitoring service image
Local
Radar
Active
Alerts
Storm Reports Obs
Monitoring

Sign-up For Email & Text Message Weather Alert Notification Services



Advertise Here

Observation History for Big Spring, Big Spring McMahon-Wrinkle Airport, TX


Time Wind
(mph)
Vis
(mi)
Weather Precip (in) Temperature (F) Relative
Humidity
Wind
Chill
(F)
Heat
Index
(F)
Pressure
Air Dwpt altimeter
(in)
sea level
(mb)
Rmks
1:55 pm CDT SE 18.4 G 21.9 10.00 Mostly Cloudy -- 94.0 55.2 27% NA 92 30.03 M
1:35 pm CDT S 17.3 G 25.3 10.00 Mostly Cloudy -- 92.0 56.3 30% NA 90 30.04 M
1:15 pm CDT S 15.0 G 21.9 10.00 Partly Cloudy -- 93.0 56.7 29% NA 91 30.04 M
12:55 pm CDT S 13.8 G 23.0 10.00 Fair -- 92.0 55.4 29% NA 90 30.05 M
12:35 pm CDT SE 15.0 G 20.7 10.00 Fair -- 92.0 57.6 31% NA 91 30.05 M
12:15 pm CDT S 17.3 G 23.0 10.00 Fair -- 91.0 57.6 33% NA 90 30.06 M
11:55 am CDT S 17.3 G 21.9 10.00 Fair -- 90.0 58.1 34% NA 89 30.06 M
11:35 am CDT S 17.3 10.00 Fair -- 88.0 61.0 41% NA 88 30.07 M
11:15 am CDT S 19.6 10.00 Fair -- 87.0 62.2 44% NA 88 30.06 M
10:55 am CDT S 18.4 G 26.5 10.00 Fair -- 86.0 63.1 46% NA 87 30.06 M
10:35 am CDT S 18.4 10.00 Fair -- 84.0 63.1 50% NA 85 30.06 M
10:15 am CDT S 21.9 G 27.6 10.00 Partly Cloudy and Breezy -- 83.0 63.0 51% NA 84 30.06 M
9:55 am CDT S 18.4 10.00 Mostly Cloudy -- 82.0 62.2 51% NA 83 30.06 M
9:35 am CDT S 16.1 10.00 Fair -- 80.0 63.3 56% NA 81 30.06 M
9:15 am CDT S 16.1 10.00 Fair -- 79.0 63.5 60% NA NA 30.06 M
8:55 am CDT S 18.4 10.00 Partly Cloudy -- 78.0 62.8 59% NA NA 30.05 M
8:35 am CDT S 15.0 10.00 Fair -- 77.0 61.9 60% NA NA 30.05 M
8:15 am CDT S 15.0 10.00 Fair -- 76.0 61.0 60% NA NA 30.05 M
7:55 am CDT S 11.5 10.00 Fair -- 75.0 60.6 61% NA NA 30.05 M
7:35 am CDT S 12.7 10.00 Fair -- 74.0 60.3 61% NA NA 30.04 M
7:15 am CDT S 10.4 10.00 Fair -- 74.0 59.9 61% NA NA 30.04 M
6:55 am CDT S 11.5 10.00 Fair -- 74.0 59.4 59% NA NA 30.03 M
6:35 am CDT S 10.4 10.00 Fair -- 75.0 58.8 58% NA NA 30.03 M
6:15 am CDT S 10.4 10.00 Fair -- 75.0 58.5 57% NA NA 30.02 M

Regional Weather Observation


Lamesa Municipal Airport, TX (KLUV)

Partly Cloudy
93.0 F

Midland, Midland Airpark, TX (KMDD)

Partly Cloudy
91.0 F

Andrews County Airport, TX (KE11)

Partly Cloudy
92.0 F

Seminole, Gaines County Airport, TX (KGNC)

Fair
91.0 F

Midland, Midland International Airport, TX (KMAF)

Fair
91.0 F

Snyder, Winston Field Airport, TX (KSNK)

Partly Cloudy
92.0 F

Advertise Here


Advertise Here